Location: Mount Lemmon
(32.4432°N, 110.7577°W)
Time: 05:02:41
(UTC-07:00)

Hubble Space Telescope - Visible Passes

Search period start: 21 January 2018 00:00
Search period end: 31 January 2018 00:00
Orbit: 537 x 541 km, 28.5° (Epoch: 20 January)

Date Brightness Start Highest point End Pass type
(mag) Time Alt. Az. Time Alt. Az. Time Alt. Az.
21 Jan 3.0 18:49:41 10° S 18:51:38 13° SSE 18:53:29 10° SE visible
21 Jan 3.8 20:28:37 10° SW 20:28:51 11° SW 20:28:51 11° SW visible
22 Jan 2.9 18:38:40 10° SSW 18:41:16 16° SSE 18:43:52 10° ESE visible
22 Jan 3.4 20:18:13 10° WSW 20:19:17 17° SW 20:19:17 17° SW visible
23 Jan 2.6 18:27:54 10° SSW 18:30:56 20° SSE 18:33:57 10° ESE visible
23 Jan 2.9 20:07:51 10° WSW 20:09:42 23° SW 20:09:42 23° SW visible
24 Jan 2.4 18:17:16 10° SW 18:20:36 24° SSE 18:23:55 10° ESE visible
24 Jan 2.3 19:57:31 10° WSW 20:00:05 32° SW 20:00:05 32° SW visible
25 Jan 1.7 19:47:13 10° WSW 19:50:29 42° SSW 19:50:29 42° SSW visible
26 Jan 1.3 19:36:56 10° WSW 19:40:52 48° S 19:40:52 48° S visible
27 Jan 1.3 19:26:39 10° WSW 19:30:37 48° S 19:31:17 43° SSE visible
28 Jan 1.4 19:16:23 10° WSW 19:20:20 47° S 19:21:43 33° SE visible
29 Jan 1.6 19:06:08 10° W 19:10:03 44° S 19:12:12 23° SE visible
30 Jan 1.7 18:55:53 10° W 18:59:46 40° S 19:02:45 15° SE visible
30 Jan 3.8 20:37:38 10° WSW 20:38:07 12° WSW 20:38:07 12° WSW visible
